Weather History for Winchester, TN

Change the Weather History Date:

Monday, March 11, 2013

  Actual Average (KTHA) Record (KTHA)
Temperature  
Mean Temperature 52 °F -  
Max Temperature 64 °F 61 °F 75 °F (2014)
Min Temperature 37 °F 37 °F 35 °F (2014)
Degree Days  
Heating Degree Days 14    
Growing Degree Days 2 (Base 50)    
Moisture  
Dew Point 45 °F    
Average Humidity 78    
Maximum Humidity 100    
Minimum Humidity 45    
Precipitation  
Precipitation 0.00 in - - ()
Sea Level Pressure  
Sea Level Pressure 29.86 in    
Wind  
Wind Speed 16 mph (SW)    
Max Wind Speed 26 mph    
Max Gust Speed 40 mph    
Visibility 9 miles    
Events      
Averages and records for this station are not official NWS values.
T = Trace of Precipitation, MM = Missing Value Source: NWS Daily Summary

Daily Weather History Graph

Daily Weather History Graph

Search for Another Location

Airport:

Trip Planner

Search our weather history database for the weather conditions in past years. The results will help you decide how hot, cold, wet, or windy it might be!

Date:

Astronomy

Mar. 11, 2013 Rise Set
Actual Time 8:00 AM EDT 7:48 PM EDT
Civil Twilight 7:34 AM EDT 8:14 PM EDT
Nautical Twilight 7:05 AM EDT 8:43 PM EDT
Astronomical Twilight 6:35 AM EDT 9:13 PM EDT
Moon 7:34 AM EDT (3/11) 7:58 PM EDT (3/11)
Length of Visible Light 12h 39m
Length of Day
11h 48m
Waning Crescent, 0% of the Moon is Illuminated
Mar 11
Waning Crescent
Mar 11
New
Mar 19
First Quarter
Mar 27
Full
Apr 3
Last Quarter

Hourly Weather History & Observations

Time (EDT) Temp. Windchill Dew Point Humidity Pressure Visibility Wind Dir Wind Speed Gust Speed Precip Events Conditions
12:15 AM 64.4 °F - 42.8 °F 45% 29.92 in 10.0 mi SSE 25.3 mph 40.3 mph N/A   Partly Cloudy
12:35 AM 62.6 °F - 42.8 °F 48% 29.91 in 10.0 mi SSE 23.0 mph - N/A   Partly Cloudy
12:55 AM 62.6 °F - 42.8 °F 48% 29.91 in 10.0 mi SSE 20.7 mph 36.8 mph N/A   Clear
1:35 AM 62.6 °F - 42.8 °F 48% 29.89 in 10.0 mi SSE 23.0 mph - N/A   Clear
1:55 AM 62.6 °F - 44.6 °F 52% 29.88 in 10.0 mi SSE 21.9 mph 40.3 mph N/A   Clear
2:15 AM 62.6 °F - 44.6 °F 52% 29.87 in 10.0 mi SSE 26.5 mph 36.8 mph N/A   Clear
2:35 AM 62.6 °F - 44.6 °F 52% 29.87 in 10.0 mi SSE 25.3 mph 40.3 mph N/A   Clear
2:55 AM 62.6 °F - 44.6 °F 52% 29.86 in 10.0 mi SSE 25.3 mph 36.8 mph N/A   Clear
3:15 AM 62.6 °F - 44.6 °F 52% 29.86 in 10.0 mi SSE 23.0 mph 38.0 mph N/A   Clear
3:35 AM 62.6 °F - 44.6 °F 52% 29.87 in 10.0 mi South 23.0 mph - N/A   Clear
3:55 AM 62.6 °F - 44.6 °F 52% 29.88 in 10.0 mi South 17.3 mph - N/A   Clear
4:15 AM 60.8 °F - 44.6 °F 55% 29.85 in 10.0 mi SSE 23.0 mph - N/A   Clear
4:35 AM 60.8 °F - 44.6 °F 55% 29.82 in 10.0 mi SSE 21.9 mph - N/A   Clear
4:55 AM 60.8 °F - 44.6 °F 55% 29.80 in 10.0 mi SSE 26.5 mph - N/A   Partly Cloudy
5:15 AM 60.8 °F - 44.6 °F 55% 29.81 in 10.0 mi South 26.5 mph 38.0 mph N/A   Partly Cloudy
5:35 AM 60.8 °F - 44.6 °F 55% 29.82 in 10.0 mi SSE 23.0 mph - N/A   Mostly Cloudy
5:55 AM 57.2 °F - 48.2 °F 72% 29.84 in 9.0 mi South 25.3 mph - N/A   Overcast
6:15 AM 57.2 °F - 48.2 °F 72% 29.85 in 10.0 mi South 17.3 mph - N/A   Overcast
6:35 AM 57.2 °F - 46.4 °F 67% 29.85 in 10.0 mi South 16.1 mph - N/A   Overcast
6:55 AM 57.2 °F - 46.4 °F 67% 29.85 in 10.0 mi South 15.0 mph - N/A   Overcast
7:15 AM 55.4 °F - 48.2 °F 77% 29.84 in 9.0 mi SSE 17.3 mph 29.9 mph N/A   Overcast
7:35 AM 55.4 °F - 48.2 °F 77% 29.81 in 10.0 mi SSE 19.6 mph - N/A   Overcast
7:55 AM 57.2 °F - 48.2 °F 72% 29.80 in 10.0 mi South 20.7 mph 29.9 mph N/A   Overcast
8:15 AM 57.2 °F - 48.2 °F 72% 29.79 in 10.0 mi South 16.1 mph - N/A   Overcast
8:35 AM 55.4 °F - 48.2 °F 77% 29.78 in 10.0 mi South 16.1 mph - N/A   Overcast
8:55 AM 55.4 °F - 50.0 °F 82% 29.79 in 10.0 mi South 20.7 mph - N/A   Mostly Cloudy
9:15 AM 55.4 °F - 51.8 °F 88% 29.83 in 10.0 mi South 10.4 mph - N/A   Overcast
9:35 AM 55.4 °F - 51.8 °F 88% 29.85 in 7.0 mi SSW 13.8 mph - N/A   Mostly Cloudy
9:55 AM 53.6 °F - 51.8 °F 94% 29.86 in 3.0 mi Variable 5.8 mph - N/A   Overcast
10:15 AM 53.6 °F - 51.8 °F 94% 29.87 in 3.0 mi WSW 5.8 mph - N/A   Overcast
10:35 AM 51.8 °F - 51.8 °F 100% 29.85 in 3.0 mi Calm Calm - N/A   Overcast
10:55 AM 51.8 °F - 51.8 °F 100% 29.85 in 4.0 mi Calm Calm - N/A   Overcast
11:15 AM 53.6 °F - 51.8 °F 94% 29.87 in 3.0 mi SW 6.9 mph - N/A   Overcast
11:35 AM 53.6 °F - 51.8 °F 94% 29.87 in 2.5 mi SSW 4.6 mph - N/A   Overcast
11:55 AM 53.6 °F - 51.8 °F 94% 29.88 in 2.0 mi WSW 6.9 mph - N/A   Overcast
12:15 PM 53.6 °F - 51.8 °F 94% 29.87 in 4.0 mi South 6.9 mph - N/A   Overcast
12:35 PM 53.6 °F - 53.6 °F 100% 29.86 in 7.0 mi SW 4.6 mph - N/A   Mostly Cloudy
12:55 PM 51.8 °F - 51.8 °F 100% 29.84 in 9.0 mi WSW 5.8 mph - N/A   Overcast
1:15 PM 51.8 °F - 51.8 °F 100% 29.86 in 4.0 mi Calm Calm - N/A   Mostly Cloudy
1:35 PM 51.8 °F - 51.8 °F 100% 29.84 in 4.0 mi Calm Calm - N/A   Overcast
1:55 PM 53.6 °F - 51.8 °F 94% 29.83 in 3.0 mi South 6.9 mph - N/A   Overcast
2:15 PM 53.6 °F - 51.8 °F 94% 29.80 in 4.0 mi South 8.1 mph - N/A   Overcast
2:35 PM 53.6 °F - 50.0 °F 88% 29.80 in 3.0 mi SW 13.8 mph 26.5 mph N/A   Mostly Cloudy
2:55 PM 46.4 °F 40.7 °F 44.6 °F 93% 29.83 in 10.0 mi West 12.7 mph - N/A   Overcast
3:15 PM 44.6 °F 39.7 °F 44.6 °F 100% 29.82 in 10.0 mi West 9.2 mph - N/A   Overcast
3:35 PM 44.6 °F 39.2 °F 44.6 °F 100% 29.83 in 10.0 mi WSW 10.4 mph - N/A   Overcast
3:55 PM 44.6 °F 39.7 °F 44.6 °F 100% 29.83 in 10.0 mi WSW 9.2 mph - N/A   Overcast
4:15 PM 44.6 °F 38.4 °F 44.6 °F 100% 29.83 in 10.0 mi WNW 12.7 mph - N/A   Overcast
4:35 PM 42.8 °F 36.6 °F 42.8 °F 100% 29.84 in 10.0 mi West 11.5 mph - N/A   Overcast
4:55 PM 44.6 °F 40.2 °F 42.8 °F 93% 29.84 in 10.0 mi West 8.1 mph - N/A   Overcast
5:15 PM 44.6 °F 40.7 °F 42.8 °F 93% 29.85 in 10.0 mi WSW 6.9 mph - N/A   Overcast
5:35 PM 44.6 °F 40.7 °F 42.8 °F 93% 29.84 in 10.0 mi SW 6.9 mph - N/A   Mostly Cloudy
5:55 PM 46.4 °F 42.4 °F 42.8 °F 87% 29.86 in 10.0 mi SW 8.1 mph - N/A   Overcast
6:15 PM 46.4 °F 43.5 °F 41.0 °F 81% 29.87 in 10.0 mi WSW 5.8 mph - N/A   Overcast
6:35 PM 46.4 °F 42.9 °F 39.2 °F 76% 29.87 in 10.0 mi WSW 6.9 mph - N/A   Overcast
6:55 PM 44.6 °F 40.7 °F 39.2 °F 81% 29.88 in 10.0 mi West 6.9 mph - N/A   Overcast
7:15 PM 44.6 °F 40.7 °F 37.4 °F 76% 29.88 in 10.0 mi West 6.9 mph - N/A   Overcast
7:35 PM 44.6 °F 41.4 °F 37.4 °F 76% 29.89 in 10.0 mi West 5.8 mph - N/A   Overcast
7:55 PM 44.6 °F 41.4 °F 37.4 °F 76% 29.89 in 10.0 mi West 5.8 mph - N/A   Overcast
8:15 PM 44.6 °F 42.2 °F 37.4 °F 76% 29.90 in 10.0 mi West 4.6 mph - N/A   Overcast
8:35 PM 44.6 °F 40.2 °F 37.4 °F 76% 29.91 in 10.0 mi WNW 8.1 mph - N/A   Overcast
8:55 PM 42.8 °F 39.3 °F 35.6 °F 76% 29.92 in 10.0 mi West 5.8 mph - N/A   Overcast
9:15 PM 42.8 °F 41.1 °F 35.6 °F 76% 29.92 in 10.0 mi WNW 3.5 mph - N/A   Overcast
9:35 PM 42.8 °F 37.5 °F 37.4 °F 81% 29.93 in 10.0 mi NW 9.2 mph - N/A   Overcast
9:55 PM 41.0 °F 35.2 °F 35.6 °F 81% 29.94 in 10.0 mi NNW 9.2 mph - N/A   Overcast
10:35 PM 39.2 °F 34.2 °F 33.8 °F 81% 29.96 in 10.0 mi NW 6.9 mph - N/A   Overcast
10:55 PM 39.2 °F 34.2 °F 33.8 °F 81% 29.96 in 10.0 mi NW 6.9 mph - N/A   Overcast
11:15 PM 39.2 °F 32.5 °F 33.8 °F 81% 29.97 in 10.0 mi NW 10.4 mph - N/A   Overcast
11:35 PM 39.2 °F 32.5 °F 32.0 °F 75% 29.97 in 10.0 mi NW 10.4 mph - N/A   Overcast
11:55 PM 37.4 °F 30.3 °F 32.0 °F 81% 29.97 in 10.0 mi NW 10.4 mph - N/A   Overcast